Time,TemperatureF,DewpointF,PressureIn,WindDirection,WindDirectionDegrees,WindSpeedMPH,WindSpeedGustMPH,Humidity,HourlyPrecipIn,Conditions,Clouds,dailyrainin,SoftwareType,DateUTC
2013-05-03 00:00:00,58.7,0.0,30.06,WNW,294,2.0,3.0,9,0.00,,---,0.00,VWS V13.01,2013-05-03 07:00:00,
2013-05-03 00:30:00,59.4,-1.9,30.05,WNW,284,1.0,5.0,8,0.00,,---,0.00,VWS V13.01,2013-05-03 07:30:00,
2013-05-03 01:00:00,59.4,-1.9,30.06,WSW,250,3.0,6.0,8,0.00,,---,0.00,VWS V13.01,2013-05-03 08:00:00,
2013-05-03 01:30:00,59.2,-2.1,30.04,West,273,4.0,6.0,8,0.00,,---,0.00,VWS V13.01,2013-05-03 08:30:00,
2013-05-03 02:00:00,55.3,-2.6,30.03,SE,146,0.0,6.0,9,0.00,,---,0.00,VWS V13.01,2013-05-03 09:00:00,
2013-05-03 02:30:00,48.3,-5.7,30.03,SE,136,0.0,1.0,10,0.00,,---,0.00,VWS V13.01,2013-05-03 09:30:00,
2013-05-03 03:00:00,47.0,0.3,30.02,SE,136,0.0,0.0,14,0.00,,---,0.00,VWS V13.01,2013-05-03 10:00:00,
2013-05-03 03:30:00,46.9,-1.4,30.01,SE,136,0.0,1.0,13,0.00,,---,0.00,VWS V13.01,2013-05-03 10:30:00,
2013-05-03 04:01:00,45.2,-2.7,30.00,SE,136,0.0,2.0,13,0.00,,---,0.00,VWS V13.01,2013-05-03 11:01:00,
2013-05-03 04:30:00,43.0,-1.5,30.02,SE,136,0.0,1.0,15,0.00,,---,0.00,VWS V13.01,2013-05-03 11:30:00,
2013-05-03 05:00:00,43.0,-0.1,30.01,SE,136,0.0,0.0,16,0.00,,---,0.00,VWS V13.01,2013-05-03 12:00:00,
2013-05-03 05:30:00,43.3,3.8,30.00,SE,136,0.0,0.0,19,0.00,,---,0.00,VWS V13.01,2013-05-03 12:30:00,
2013-05-03 06:00:00,43.7,-0.9,30.00,SE,136,0.0,1.0,15,0.00,,---,0.00,VWS V13.01,2013-05-03 13:00:00,
2013-05-03 06:30:00,42.7,2.2,30.00,SE,136,0.0,0.0,18,0.00,,---,0.00,VWS V13.01,2013-05-03 13:30:00,
2013-05-03 07:00:00,47.6,2.2,29.99,SE,136,0.0,0.0,15,0.00,,---,0.00,VWS V13.01,2013-05-03 14:00:00,
2013-05-03 07:30:00,50.3,2.9,30.00,SE,136,0.0,0.0,14,0.00,,---,0.00,VWS V13.01,2013-05-03 14:30:00,
2013-05-03 08:00:00,54.2,4.4,29.99,SE,136,0.0,0.0,13,0.00,,---,0.00,VWS V13.01,2013-05-03 15:00:00,
2013-05-03 08:30:00,59.0,4.6,29.99,SE,136,0.0,1.0,11,0.00,,---,0.00,VWS V13.01,2013-05-03 15:30:00,
2013-05-03 09:00:00,63.6,6.1,29.97,SE,136,0.0,0.0,10,0.00,,---,0.00,VWS V13.01,2013-05-03 16:00:00,
2013-05-03 09:30:00,67.5,6.7,29.97,SE,136,1.0,3.0,9,0.00,,---,0.00,VWS V13.01,2013-05-03 16:30:00,
2013-05-03 10:00:00,71.5,7.1,29.98,SE,128,0.0,3.0,8,0.00,,---,0.00,VWS V13.01,2013-05-03 17:00:00,
2013-05-03 10:30:00,75.8,7.4,29.97,East,86,2.0,5.0,7,0.00,,---,0.00,VWS V13.01,2013-05-03 17:30:00,
2013-05-03 11:00:00,78.4,9.3,29.96,NE,34,0.0,6.0,7,0.00,,---,0.00,VWS V13.01,2013-05-03 18:00:00,
2013-05-03 11:30:00,80.1,10.5,29.95,NNE,12,5.0,8.0,7,0.00,,---,0.00,VWS V13.01,2013-05-03 18:30:00,
2013-05-03 12:00:00,80.3,10.7,29.93,NNE,14,0.0,9.0,7,0.00,,---,0.00,VWS V13.01,2013-05-03 19:00:00,
2013-05-03 12:30:00,82.2,15.1,29.92,NW,326,0.0,10.0,8,0.00,,---,0.00,VWS V13.01,2013-05-03 19:30:00,
2013-05-03 13:00:00,83.7,13.2,29.91,NNE,21,2.0,9.0,7,0.00,,---,0.00,VWS V13.01,2013-05-03 20:00:00,
2013-05-03 13:30:00,83.9,13.3,29.88,North,356,4.0,12.0,7,0.00,,---,0.00,VWS V13.01,2013-05-03 20:30:00,
2013-05-03 14:01:00,84.1,13.4,29.87,North,356,0.0,10.0,7,0.00,,---,0.00,VWS V13.01,2013-05-03 21:01:00,
2013-05-03 14:30:00,86.8,15.4,29.85,North,353,5.0,14.0,7,0.00,,---,0.00,VWS V13.01,2013-05-03 21:30:00,
2013-05-03 15:00:00,86.8,11.9,29.84,East,86,3.0,9.0,6,0.00,,---,0.00,VWS V13.01,2013-05-03 22:00:00,
2013-05-03 15:30:00,87.1,12.1,29.82,NE,40,1.0,8.0,6,0.00,,---,0.00,VWS V13.01,2013-05-03 22:30:00,
2013-05-03 16:01:00,87.6,12.5,29.80,SSE,155,2.0,7.0,6,0.00,,---,0.00,VWS V13.01,2013-05-03 23:01:00,
2013-05-03 16:30:00,87.6,12.5,29.79,SE,142,4.0,10.0,6,0.00,,---,0.00,VWS V13.01,2013-05-03 23:30:00,
2013-05-03 17:00:00,88.4,13.1,29.78,SE,126,0.0,7.0,6,0.00,,---,0.00,VWS V13.01,2013-05-04 00:00:00,
2013-05-03 17:30:00,89.2,13.6,29.76,WNW,294,0.0,5.0,6,0.00,,---,0.00,VWS V13.01,2013-05-04 00:30:00,
2013-05-03 18:00:00,88.4,9.0,29.77,SE,145,2.0,5.0,5,0.00,,---,0.00,VWS V13.01,2013-05-04 01:00:00,
2013-05-03 18:30:00,85.3,17.4,29.77,ESE,119,5.0,20.0,8,0.00,,---,0.00,VWS V13.01,2013-05-04 01:30:00,
2013-05-03 19:00:00,82.3,17.9,29.76,ESE,123,3.0,20.0,9,0.00,,---,0.00,VWS V13.01,2013-05-04 02:00:00,
2013-05-03 19:30:00,80.3,16.4,29.76,SSE,160,8.0,16.0,9,0.00,,---,0.00,VWS V13.01,2013-05-04 02:30:00,
2013-05-03 20:00:00,78.2,14.8,29.79,SSE,165,6.0,19.0,9,0.00,,---,0.00,VWS V13.01,2013-05-04 03:00:00,
2013-05-03 20:30:00,75.6,15.2,29.78,South,187,10.0,13.0,10,0.00,,---,0.00,VWS V13.01,2013-05-04 03:30:00,
2013-05-03 21:00:00,73.6,17.9,29.78,South,173,5.0,12.0,12,0.00,,---,0.00,VWS V13.01,2013-05-04 04:00:00,
2013-05-03 21:30:00,71.5,24.4,29.79,SSW,198,6.0,9.0,17,0.00,,---,0.00,VWS V13.01,2013-05-04 04:30:00,
2013-05-03 22:30:00,71.2,26.9,29.78,SSW,199,0.0,0.0,19,0.00,,---,0.00,VWS V13.01,2013-05-04 05:30:00,
2013-05-03 23:00:00,69.0,27.5,29.78,ESE,118,0.0,0.0,21,0.00,,---,0.00,VWS V13.01,2013-05-04 06:00:00,
2013-05-03 23:30:00,66.2,26.3,29.77,South,191,0.0,0.0,22,0.00,,---,0.00,VWS V13.01,2013-05-04 06:30:00,